Regional Weather Roundup
Issued by NWS

Home | Current Version | Previous Version | Graphics & Text | Print | Product List | Glossary On
Versions: 1 2 3 4 5 6 7 8 9 10 11 12 13 14 15 16 17 18 19 20 21 22 23 24 25 26 27 28 29 30 31 32 33 34 35 36 37 38 39 40 41 42 43 44 45 46 47 48 49 50
000
ASUS43 KLOT 021606
RWRIL

ILLINOIS REGIONAL WEATHER ROUNDUP
NATIONAL WEATHER SERVICE CHICAGO/ROMEOVILLE IL
1000 AM CST MON MAR 02 2015

NOTE: "FAIR" INDICATES FEW OR NO CLOUDS BELOW 12,000 FEET WITH NO
SIGNIFICANT WEATHER AND/OR OBSTRUCTIONS TO VISIBILITY.

* THESE STATIONS ARE NOT UNDER NWS QUALITY CONTROL. THEY ALSO MAY NOT
  REPORT WEATHER SUCH AS PRECIPITATION OR FOG.

ILZ001-002-007-009-015-016-024-021700-
NORTHWEST ILLINOIS

CITY           SKY/WX    TMP DP  RH WIND       PRES   REMARKS
MOLINE         SUNNY     25  12  58 N3        30.53S
STERLING*      SUNNY     12   5  73 SE3       30.54R
SAVANNA*       SUNNY     19  11  72 CALM      30.54R
$$

ILZ003-004-008-010-011-017-018-021700-
NORTH CENTRAL ILLINOIS

CITY           SKY/WX    TMP DP  RH WIND       PRES   REMARKS
ROCKFORD       MOSUNNY   21  11  65 NW8       30.52F WCI  11
FREEPORT*      SUNNY     16  10  77 CALM      30.53S
ROCHELLE*      SUNNY     12  10  89 S5        30.52S WCI   4
DE KALB*       SUNNY     17  10  76 N6        30.51R WCI   8
PERU*          SUNNY     19  12  73 NW7       30.54S WCI  10
$$

ILZ005-006-012>014-019>023-021700-
NORTHEAST ILLINOIS

CITY           SKY/WX    TMP DP  RH WIND       PRES   REMARKS
CHICAGO-OHARE  MOSUNNY   24  11  57 N7        30.50S WCI  16
CHICAGO-MIDWAY MOSUNNY   26  14  60 W5        30.51S WCI  20
AURORA         SUNNY     18  10  71 NW6       30.53R WCI  10
LANSING*       SUNNY     24  13  61 CALM      30.52S
JOLIET*        SUNNY     21  11  66 N3        30.53R
WAUKEGAN       SUNNY     23  10  57 NW7       30.50R WCI  15
DUPAGE AIRPORT SUNNY     24  12  60 N6        30.50S WCI  17
KANKAKEE*      SUNNY     17  12  80 CALM      30.54S
WHEELING       SUNNY     24  11  57 NW8       30.52S WCI  15
MORRIS*        SUNNY     17  11  78 CALM      30.53R
ROMEOVILLE*    SUNNY     22  12  66 CALM      30.52S
NORTHERLY ISL    N/A     26  13  57 NE6         N/A  WCI  20
$$

LMZ740>746-021700-
SOUTHERN LAKE MICHIGAN

STATION/POSITION SKY/WX   TEMP    WIND        PRES    VSBY  WAVE
                          AIR SEA DIR/SP/G                  HT/PER
                          (F)     (DEG/KT/KT) (MB)    (MI)  (FT/S)
WAUKEGAN HARBOR            21     320/  7/ 17   N/A
HARRISON CRIB              22     330/ 10/ 12   N/A
BURNHAM HARBOR             25      40/  5/  8   N/A
CALUMET HARBOR             25     350/  5/  8 1031.8F
MICHIGAN CITY              22     250/  5/  7   N/A
$$

ILZ025>027-034>036-040-047-049-050-058-095>099-021700-
WEST-CENTRAL ILLINOIS

CITY           SKY/WX    TMP DP  RH WIND       PRES   REMARKS
QUINCY         PTSUNNY   25  15  66 CALM      30.54S
GALESBURG*     SUNNY     20  14  76 CALM      30.54S
MACOMB*        SUNNY     20  15  79 CALM      30.56S
JACKSONVILLE*  MOSUNNY   24  20  84 CALM      30.55S FOG
PITTSFIELD*    MOSUNNY   26  19  73 N3        30.55F
$$

ILZ028>032-037-038-041>044-048-051>054-059>061-021700-
CENTRAL ILLINOIS

CITY           SKY/WX    TMP DP  RH WIND       PRES   REMARKS
PONTIAC        SUNNY     18  13  81 W3        30.55R
BLOOMINGTON    SUNNY     25  15  65 N5        30.53R WCI  19
DECATUR        MOSUNNY   25  15  66 N8        30.55R WCI  16
PEORIA         SUNNY     28  16  60 E3        30.54F
LACON*         SUNNY     21  11  65 CALM      30.54R
LINCOLN*       MOSUNNY   20  14  79 CALM      30.57S
SPRINGFIELD    MOSUNNY   28  17  63 NE3       30.56S
TAYLORVILLE    MOSUNNY   25  21  86 CALM      30.56S
$$

ILZ033-039-045-046-055>057-062-063-021700-
EAST-CENTRAL ILLINOIS

CITY           SKY/WX    TMP DP  RH WIND       PRES   REMARKS
CHAMPAIGN      SUNNY     17  13  84 W5        30.54R FOG     WCI  10
DANVILLE*      SUNNY     19  12  73 CALM      30.52R
RANTOUL*       SUNNY     22  14  71 NW5       30.54R WCI  16
MATTOON        MOSUNNY   24  16  71 CALM      30.55R
PARIS*         SUNNY     19  14  81 CALM      30.57R
$$

ILZ079-100>102-021700-
SOUTHWEST ILLINOIS

CITY           SKY/WX    TMP DP  RH WIND       PRES   REMARKS
BELLEVILLE     MOSUNNY   29  29  99 NE3       30.55S
CAHOKIA*       MOSUNNY   27  22  81 CALM      30.56S HAZE
SPARTA*        SUNNY     24  22  94 CALM      30.57S
$$

ILZ064>066-069>071-074>076-080>082-084>086-088>090-092>094-021700-
SOUTH-CENTRAL ILLINOIS

CITY           SKY/WX    TMP DP  RH WIND       PRES   REMARKS
CARBONDALE     SUNNY     32  20  61 NE12      30.55F WCI  23
CAIRO*         SUNNY     34  21  59 NE14      30.53F WCI  24
EFFINGHAM*     MOSUNNY   26  16  65 CALM      30.58S
MARION         PTSUNNY   34  19  55 NE12      30.56S WCI  25
MT. VERNON     SUNNY     28  21  74 NE8       30.57R WCI  20
CENTRALIA*     MOSUNNY   27  24  91 NE5       30.55S WCI  21
SALEM*         MOSUNNY   27  25  91 NE5       30.55F WCI  22
METROPOLIS*    SUNNY     33  19  56 NE10      30.53F WCI  25
$$

ILZ067-068-072-073-078-083-087-091-021700-
SOUTHEAST ILLINOIS

CITY           SKY/WX    TMP DP  RH WIND       PRES   REMARKS
LAWRENCEVILLE  FAIR      27  18  69 CALM      30.58S
FLORA*         FAIR      26  21  80 NE3       30.57S
FAIRFIELD*     MOSUNNY   26  18  72 NE5       30.57R WCI  20
HARRISBURG*    SUNNY     31  21  66 E9        30.57S WCI  23
ROBINSON*      MOSUNNY   24  18  75 SW3       30.59R
CARMI*         MOSUNNY   32  24  72 NE7       30.56S WCI  26
$$

ABBREVIATIONS USED IN REMARKS
   TC - TEMPERATURE IN CELSIUS
  WCI - WIND CHILL INDEX
   HX - HEAT INDEX
  VSB - VISIBILITY
$$




USA.gov is the U.S. government's official web portal to all federal, state and local government web resources and services.